Flag for Austria Weather past 2 weeks in Hallein, Salzburg, Austria

Now
45 °F

Rain. Partly cloudy.


Feels Like: 37 °F
Forecast: 25 / 38 °F
Wind: 17 mph from Northwest

Location: Salzburg-Flughafen

Current Time: Oct 23, 2014 at 9:09:50 AM

Latest Report: Oct 23, 2014 at 8:20 AM


Visibility: 5 mi

Pressure: 29.98 "Hg

Humidity: 87%

Dew point: 41 °F

Location of HalleinLocation

Historic Weather in Hallein — Graph

°F

Hallein temperature yesterday

Maximum temperature yesterday: 48 °F (at 12:50 AM)
Minimum temperature yesterday: 41 °F (at 7:20 AM)
Average temperature yesterday: 43 °F

Past Weeks' High & Low Weather Summary

 TemperatureHumidityPressure
High77 °F (Oct 9, 3:20 PM)100% (Oct 10, 10:20 PM)30.27 "Hg (Oct 10, 10:20 PM)
Low41 °F (Oct 22, 7:20 AM)34% (Oct 9, 3:20 PM)29.65 "Hg (Oct 21, 9:50 PM)
Average58 °F81%29.96 "Hg
* Reported Oct 8 7:20 AM — Oct 23 7:50 AM, Hallein, Weather by CustomWeather, © 2014

Note: Actual official high and low records may vary slightly from our data, if they occured in-between our weather recording intervals... More about our weather records

Advertising

Hallein weather history for previous 24 hours

 ConditionsComfort  
Time TempWeatherWind HumidityBarometerVisibility
7:50 AM
Oct 23
45 °FRain. Partly cloudy.14 mph87%29.95 "Hg4 mi
7:20 AM45 °FRain. Partly cloudy.17 mph87%29.95 "Hg4 mi
6:50 AM45 °FRain. Partly cloudy.15 mph87%29.92 "Hg4 mi
6:20 AM45 °FHeavy rain. Partly cloudy.16 mph87%29.92 "Hg4 mi
5:50 AM45 °FRain. Partly cloudy.20 mph87%29.89 "Hg5 mi
5:20 AM45 °FRain. Partly cloudy.16 mph87%29.89 "HgN/A
4:50 AM43 °FRain. Passing clouds.17 mph87%29.89 "Hg4 mi
4:20 AM43 °FRain. Passing clouds.14 mph87%29.89 "Hg4 mi
3:50 AM43 °FRain. Passing clouds.13 mph87%29.89 "Hg5 mi
3:20 AM41 °FRain. Passing clouds.10 mph87%29.89 "HgN/A
2:50 AM41 °FRain. Passing clouds.14 mph87%29.89 "HgN/A
2:20 AM41 °FLight rain. Passing clouds.13 mph81%29.89 "HgN/A
1:50 AM41 °FRain. Passing clouds.12 mph81%29.89 "HgN/A
1:20 AM41 °FLight rain. Overcast.9 mph81%29.92 "HgN/A
12:50 AM41 °FLight rain. Passing clouds.3 mph81%29.92 "HgN/A
12:20 AM41 °FLight rain. Passing clouds.5 mph81%29.92 "HgN/A
11:50 PM
Oct 22
41 °FLight rain. Passing clouds.9 mph76%29.92 "HgN/A
11:20 PM41 °FLight rain. Passing clouds.8 mph81%29.92 "HgN/A
10:50 PM41 °FLight rain. Partly cloudy.10 mph81%29.92 "HgN/A
10:20 PM41 °FLight rain. Partly cloudy.10 mph81%29.92 "HgN/A
9:50 PM43 °FLight rain. Partly cloudy.15 mph76%29.92 "HgN/A
9:20 PM43 °FLight rain. Partly cloudy.12 mph76%29.92 "HgN/A
8:50 PM43 °FLight rain. Partly cloudy.14 mph76%29.89 "HgN/A
8:20 PM43 °FLight rain. Partly cloudy.13 mph76%29.89 "HgN/A
7:50 PM43 °FLight rain. Partly cloudy.14 mph76%29.92 "HgN/A
7:20 PM43 °FLight rain. Partly cloudy.14 mph76%29.92 "HgN/A
6:50 PM43 °FLight rain. Broken clouds.13 mph76%29.92 "HgN/A
6:20 PM43 °FLight rain. Broken clouds.14 mph76%29.92 "HgN/A
5:50 PM43 °FLight rain. Broken clouds.13 mph76%29.92 "HgN/A
5:20 PM43 °FLight rain. Broken clouds.15 mph76%29.95 "HgN/A
4:50 PM43 °FLight rain. Broken clouds.14 mph76%29.95 "HgN/A
4:20 PM43 °FLight rain. Broken clouds.20 mph76%29.95 "HgN/A
3:50 PM43 °FLight rain. Broken clouds.16 mph76%29.95 "HgN/A
3:20 PM43 °FLight rain. Broken clouds.15 mph76%29.95 "HgN/A
2:50 PM43 °FLight rain. Broken clouds.12 mph81%29.95 "HgN/A
2:20 PM43 °FLight rain. Broken clouds.13 mph81%29.95 "HgN/A
1:50 PM41 °FLight rain. Broken clouds.14 mph87%29.95 "HgN/A
1:20 PM43 °FLight rain. Broken clouds.16 mph81%29.95 "HgN/A
12:50 PM43 °FLight rain. Broken clouds.15 mph81%29.95 "HgN/A
12:20 PM43 °FLight rain. Broken clouds.13 mph81%29.95 "HgN/A
11:50 AM43 °FLight rain. Broken clouds.10 mph76%29.92 "HgN/A
11:20 AM41 °FLight rain. Broken clouds.10 mph81%29.92 "HgN/A
10:50 AM41 °FLight rain. Broken clouds.12 mph81%29.92 "HgN/A
10:20 AM43 °FLight rain. Broken clouds.13 mph76%29.92 "HgN/A
9:50 AM43 °FLight rain. Broken clouds.13 mph76%29.92 "HgN/A
9:20 AM43 °FSprinkles. Broken clouds.13 mph76%29.92 "HgN/A
Weather by CustomWeather, © 2014

See weather overviewHow to use our weather pages